Location: Monteux
(44.0348°N, 4.9972°E)
Time: 05:34:37
(UTC+00:00)

Cosmos 2341 Rocket - Pass Details

Date: 28 April 2021
Orbit: 969 x 1003 km, 82.9° (Epoch: 11 May)

Event Time Altitude Azimuth Distance (km) Brightness Sun altitude
Rises 22:43:22 0° 359° (N) 3,727 8.1 -30.2°
Reaches altitude 10° 22:46:12 10° 9° (N) 2,778 7.1 -30.4°
Maximum altitude 22:51:54 33° 72° (ENE) 1,615 5.1 -30.6°
Enters shadow 22:52:10 33° 77° (ENE) 1,618 5.1 -30.6°
